Weather History for Hayward, WI

Change the Weather History Date:

Thursday, October 17, 2013

  Actual Average Record
Temperature  
Mean Temperature 38 °F -  
Max Temperature 52 °F 63 °F 68 °F (1998)
Min Temperature 26 °F 38 °F 19 °F (2001)
Degree Days  
Heating Degree Days 26    
Moisture  
Dew Point 35 °F    
Average Humidity 86    
Maximum Humidity 96    
Minimum Humidity 63    
Precipitation  
Precipitation 0.06 in - - ()
Sea Level Pressure  
Sea Level Pressure 29.84 in    
Wind  
Wind Speed 0 mph (WSW)    
Max Wind Speed 5 mph    
Max Gust Speed -    
Visibility 9 miles    
Events Rain    
Averages and records for this station are not official NWS values.
T = Trace of Precipitation, MM = Missing Value Source: NWS Daily Summary

Daily Weather History Graph

Daily Weather History Graph

Search for Another Location

Airport:

Trip Planner

Search our weather history database for the weather conditions in past years. The results will help you decide how hot, cold, wet, or windy it might be!

Date:

Astronomy

Oct. 17, 2013 Rise Set
Actual Time 7:25 AM CDT 6:15 PM CDT
Civil Twilight 6:55 AM CDT 6:45 PM CDT
Nautical Twilight 6:20 AM CDT 7:20 PM CDT
Astronomical Twilight 5:46 AM CDT 7:55 PM CDT
Moon 5:31 PM CDT (10/17) 5:54 AM CDT (10/17)
Length of Visible Light 11h 50m
Length of Day
10h 49m
Waxing Gibbous, 98% of the Moon is Illuminated
Oct 17
Waxing Gibbous
Oct 18
Full
Oct 26
Last Quarter
Nov 3
New
Nov 9
First Quarter

Hourly Weather History & Observations

Time (CDT) Temp. Windchill Dew Point Humidity Pressure Visibility Wind Dir Wind Speed Gust Speed Precip Events Conditions
12:53 AM 28.0 °F - 25.0 °F 88% 29.91 in 8.0 mi Calm Calm - N/A   Clear
1:53 AM 27.0 °F - 25.0 °F 92% 29.90 in 10.0 mi Calm Calm - N/A   Clear
2:53 AM 27.0 °F - 25.0 °F 92% 29.89 in 10.0 mi Calm Calm - N/A   Clear
3:36 AM 26.6 °F - 24.8 °F 93% 29.84 in 10.0 mi Calm Calm - N/A   Scattered Clouds
3:53 AM 26.1 °F - 24.1 °F 92% 29.88 in 10.0 mi Calm Calm - N/A   Scattered Clouds
4:53 AM 26.1 °F - 24.1 °F 92% 29.88 in 10.0 mi Calm Calm - N/A   Clear
5:53 AM 28.0 °F - 27.0 °F 96% 29.87 in 10.0 mi Calm Calm - N/A   Clear
6:53 AM 30.0 °F - 28.0 °F 92% 29.86 in 10.0 mi Calm Calm - N/A   Clear
7:53 AM 30.9 °F - 30.0 °F 96% 29.86 in 10.0 mi Calm Calm - N/A   Clear
8:53 AM 34.0 °F - 32.0 °F 92% 29.86 in 9.0 mi Calm Calm - N/A   Clear
9:53 AM 39.9 °F - 37.9 °F 93% 29.85 in 5.0 mi Calm Calm - N/A   Clear
10:53 AM 44.1 °F 41.5 °F 37.9 °F 79% 29.84 in 10.0 mi SSW 4.6 mph - N/A   Clear
11:53 AM 46.0 °F - 39.0 °F 76% 29.83 in 10.0 mi Calm Calm - N/A   Clear
12:53 PM 48.0 °F - 39.0 °F 71% 29.82 in 10.0 mi Calm Calm - N/A   Partly Cloudy
1:53 PM 50.0 °F - 39.9 °F 68% 29.81 in 10.0 mi West 3.5 mph - N/A   Mostly Cloudy
2:53 PM 51.1 °F - 39.0 °F 63% 29.80 in 10.0 mi WSW 3.5 mph - N/A   Mostly Cloudy
3:53 PM 51.1 °F - 39.9 °F 66% 29.79 in 10.0 mi Calm Calm - N/A   Overcast
4:53 PM 48.9 °F - 39.9 °F 71% 29.80 in 10.0 mi WNW 3.5 mph - N/A   Overcast
5:53 PM 46.9 °F - 41.0 °F 80% 29.81 in 10.0 mi Calm Calm - N/A   Overcast
6:53 PM 45.0 °F - 41.0 °F 86% 29.82 in 10.0 mi Calm Calm - N/A   Overcast
7:53 PM 44.1 °F - 42.1 °F 93% 29.82 in 9.0 mi Calm Calm - 0.01 in Rain Light Rain
8:53 PM 45.0 °F - 43.0 °F 93% 29.82 in 8.0 mi Calm Calm - 0.02 in Rain Light Rain
9:53 PM 44.1 °F - 43.0 °F 96% 29.82 in 6.0 mi Calm Calm - 0.01 in Rain Light Rain
10:53 PM 44.1 °F - 43.0 °F 96% 29.81 in 5.0 mi Calm Calm - 0.01 in Rain Light Rain
11:25 PM 44.6 °F - 42.8 °F 93% 29.78 in 6.0 mi Calm Calm - 0.00 in Rain Light Rain
11:53 PM 44.1 °F - 43.0 °F 96% 29.80 in 5.0 mi Calm Calm - 0.01 in Rain Light Rain